Preview of NWS' New Version of Forecast
This preview is not operational and should not be used for support decisions.

Regional Weather Roundup (RWR)

Issued by Philadelphia/Mt Holly (PHI)

                            
000
ASUS41 KPHI 260212
RWRPHI

REGIONAL WEATHER ROUNDUP
NATIONAL WEATHER SERVICE MOUNT HOLLY NJ
1000 PM EDT SAT MAY 25 2019

NOTE:  "FAIR" INDICATES FEW OR NO CLOUDS BELOW 12,000 FEET WITH NO
SIGNIFICANT WEATHER AND/OR OBSTRUCTIONS TO VISIBILITY.

 * = STATION DOES NOT REPORT PRECIPITATION (E.G. RAIN, SNOW, ETC.) 
        OR FOG.

NJZ015>026-260300-
SOUTHERN NEW JERSEY
  
CITY           SKY/WX    TMP DP  RH WIND       PRES   REMARKS
POMONA         FAIR      62  57  83 S9G23     30.10F                  
WILDWOOD*      MOCLDY    62  58  86 S15       30.10F                  
MILLVILLE      FAIR      63  57  81 S8        30.08F                  
WRIGHTSTOWN    MOCLDY    61  51  68 S7        30.07S                  
MOUNT HOLLY    CLOUDY    62  51  67 VRB6      30.08F                  
TRENTON        CLOUDY    62  51  67 S14       30.07S                  

$$
NJZ001>014-260300-
NORTHERN NEW JERSEY
  
CITY           SKY/WX    TMP DP  RH WIND       PRES   REMARKS
SUSSEX         CLOUDY    67  55  65 SW7       30.04S                  
ANDOVER*         N/A     65  53  65 VRB6      30.04S                  
MORRISTOWN     MOCLDY    64  54  68 S9        30.06S                  
NEWARK         MOCLDY    63  52  67 S14       30.06F                  
TETERBORO      FAIR      63  51  65 S16G23    30.04F                  
CALDWELL       FAIR      65  50  58 S5        30.05F                  
SOMERVILLE     FAIR      63  52  67 S6        30.04S                  
ALLAIRE*       CLOUDY    61  54  77 S8G18     30.09F                  
TOMS RIVER*    MOCLDY    61  55  81 S8        30.10F                  

$$
PAZ043-044-047-054-055-060>062-066>071-260300-
EASTERN PENNSYLVANIA
  
CITY           SKY/WX    TMP DP  RH WIND       PRES   REMARKS
PHILADELPHIA   MOCLDY    65  53  65 S8        30.09R                  
NORTH PHILA    CLOUDY    66  51  58 S8G16     30.09R                  
BLUE BELL*     FAIR      64  53  69 SE7       30.08S                  
DOYLESTOWN     FAIR      65  52  62 S7        30.06R                  
QUAKERTOWN*    CLEAR     64  55  72 S5        30.07R                  
PERKASIE*      CLOUDY    64  55  72 S7        30.08R                  
POTTSTOWN      FAIR      63  53  70 VRB5      30.08R                  
LANCASTER      FAIR      65  58  78 SE8       30.05R                  
COATESVILLE    FAIR      61  57  88 VRB5G13   30.08R                  
WEST CHESTER   FAIR      63  54  72 S6        30.08R                  
READING        MOCLDY    65  56  72 S9        30.05R                  
ALLENTOWN      MOCLDY    69  54  58 S9        30.05R                  
QN CITY/ALNTWN MOCLDY    66  55  68 S7        30.07R                  
MOUNT POCONO   FAIR      59  56  89 S8        30.06R                  
HAZLETON       FAIR      63  55  77 SE7       30.08R                  
LEHIGHTON      CLOUDY    66  55  68 CALM      30.06R                  
WILKES BARRE   MOCLDY    66  58  75 SW6       30.01R                  

$$
DEZALL-MDZ008-012-015-019-020-260300-
DELAWARE AND EASTERN MARYLAND
  
CITY           SKY/WX    TMP DP  RH WIND       PRES   REMARKS
WILMINGTON     MOCLDY    65  59  81 S14       30.08R                  
DOVER          PTCLDY    65  58  78 SE12      30.06F                  
CHESWOLD         N/A     66  59  77 S5G12     30.06F                  
GEORGETOWN     MOCLDY    66  59  78 S8        30.10F                  
EASTON         FAIR      70  62  75 S13       30.10F                  
STEVENSVILLE   FAIR      70  64  83 S14G20    30.06R                  
PATUXENT       FAIR      72  67  84 SE8       30.06                   
OCEAN CITY     FAIR      66  62  87 S6        30.10F                  
WALLOPS ISLAND FAIR      69  65  86 S8        30.12R                  
CAMBRIDGE      MOCLDY    68  63  83 SE9G18    30.09S                  
SALISBURY      FAIR      66  63  90 S6        30.09F                  

$$
PAZ001-021-NYZ056-072-MDZ011-DCZ001-260300-
OTHER NEARBY LOCATIONS
  
CITY           SKY/WX    TMP DP  RH WIND       PRES   REMARKS
HARRISBURG     MOCLDY    71  61  70 S7        30.03R                  
STATE COLLEGE  LGT RAIN  70  66  88 SW9       30.02R                  
WILLIAMSPORT   TSTM      72  60  66 SE8       29.97R                  
BINGHAMTON     TSTM      61  58  90 SW8       30.01R FOG              
NEW YORK CITY  MOCLDY    61  52  72 VRB3      30.08F                  
BALTIMORE      MOCLDY    70  63  78 VRB6      30.06R                  
WASHINGTON DC  MOCLDY    72  64  76 S14       30.06S                  

$$